Location: Columbus
(35.2256°N, 82.1549°W)
Time: 18:24:31
(UTC-05:00)

Envisat - Pass Details

Date: 05 December 2021
Orbit: 764 x 766 km, 98.2° (Epoch: 21 January)

Event Time Altitude Azimuth Distance (km) Brightness Sun altitude
Rises 17:49:20 0° 205° (SSW) 3,215 7.1 -7.0°
Reaches altitude 10° 17:52:21 10° 224° (SW) 2,295 6.7 -7.5°
Maximum altitude 17:55:44 18° 267° (W) 1,815 6.1 -8.2°
Drops below altitude 10° 17:59:07 10° 309° (NW) 2,305 5.9 -8.8°
Sets 18:02:11 0° 328° (NNW) 3,236 6.4 -9.4°
